TimeEDT,TemperatureF,Dew PointF,Humidity,Sea Level PressureIn,VisibilityMPH,Wind Direction,Wind SpeedMPH,Gust SpeedMPH,PrecipitationIn,Events,Conditions,WindDirDegrees,DateUTC
12:15 AM,37.9,34.3,87,30.11,10.0,Calm,Calm,-,N/A,,Clear,0,2013-04-06 04:15:00
12:35 AM,36.0,33.3,90,30.11,10.0,Calm,Calm,-,N/A,,Clear,0,2013-04-06 04:35:00
12:55 AM,37.9,34.3,87,30.12,10.0,Calm,Calm,-,N/A,,Clear,0,2013-04-06 04:55:00
1:15 AM,36.5,34.5,93,30.12,10.0,Calm,Calm,-,N/A,,Clear,0,2013-04-06 05:15:00
1:35 AM,37.2,34.5,90,30.12,10.0,Calm,Calm,-,N/A,,Clear,0,2013-04-06 05:35:00
1:55 AM,35.6,33.8,93,30.12,10.0,Calm,Calm,-,N/A,,Clear,0,2013-04-06 05:55:00
2:15 AM,34.0,32.5,94,30.12,10.0,Calm,Calm,-,N/A,,Clear,0,2013-04-06 06:15:00
2:35 AM,34.0,32.0,92,30.11,10.0,Calm,Calm,-,N/A,,Clear,0,2013-04-06 06:35:00
2:55 AM,34.5,33.6,97,30.12,10.0,Calm,Calm,-,N/A,,Clear,0,2013-04-06 06:55:00
3:15 AM,33.3,32.0,95,30.13,10.0,Calm,Calm,-,N/A,,Clear,0,2013-04-06 07:15:00
3:35 AM,32.9,31.6,95,30.13,10.0,Calm,Calm,-,N/A,,Clear,0,2013-04-06 07:35:00
3:55 AM,32.5,31.6,96,30.13,10.0,Calm,Calm,-,N/A,,Clear,0,2013-04-06 07:55:00
4:15 AM,32.4,31.8,98,30.12,10.0,NE,3.5,-,N/A,,Clear,40,2013-04-06 08:15:00
4:35 AM,32.0,31.3,97,30.13,10.0,Calm,Calm,-,N/A,,Clear,0,2013-04-06 08:35:00
4:55 AM,32.4,31.8,98,30.12,10.0,Calm,Calm,-,N/A,,Clear,0,2013-04-06 08:55:00
5:15 AM,31.8,31.3,98,30.12,7.0,Calm,Calm,-,N/A,,Clear,0,2013-04-06 09:15:00
5:35 AM,31.8,31.5,99,30.13,10.0,Calm,Calm,-,N/A,,Clear,0,2013-04-06 09:35:00
5:55 AM,32.7,32.2,98,30.14,10.0,Calm,Calm,-,N/A,,Clear,0,2013-04-06 09:55:00
6:15 AM,30.9,30.2,97,30.15,10.0,Calm,Calm,-,N/A,,Clear,0,2013-04-06 10:15:00
6:35 AM,30.0,29.5,98,30.16,7.0,Calm,Calm,-,N/A,,Clear,0,2013-04-06 10:35:00
6:55 AM,30.2,29.3,96,30.16,10.0,Calm,Calm,-,N/A,,Clear,0,2013-04-06 10:55:00
7:15 AM,30.6,29.5,96,30.17,10.0,Calm,Calm,-,N/A,,Clear,0,2013-04-06 11:15:00
7:35 AM,30.9,29.7,95,30.18,10.0,Calm,Calm,-,N/A,,Clear,0,2013-04-06 11:35:00
7:55 AM,30.9,29.8,96,30.19,10.0,Calm,Calm,-,N/A,,Clear,0,2013-04-06 11:55:00
8:15 AM,32.0,31.5,98,30.20,7.0,Calm,Calm,-,N/A,,Clear,0,2013-04-06 12:15:00
8:35 AM,34.0,32.7,95,30.20,10.0,Calm,Calm,-,N/A,,Clear,0,2013-04-06 12:35:00
8:55 AM,36.5,34.2,91,30.20,10.0,Calm,Calm,-,N/A,,Clear,0,2013-04-06 12:55:00
9:15 AM,38.7,35.2,87,30.20,10.0,Calm,Calm,-,N/A,,Clear,0,2013-04-06 13:15:00
9:35 AM,41.0,36.1,83,30.20,10.0,Calm,Calm,-,N/A,,Clear,0,2013-04-06 13:35:00
9:55 AM,44.4,37.0,75,30.20,10.0,Calm,Calm,-,N/A,,Clear,0,2013-04-06 13:55:00
10:15 AM,47.5,38.8,72,30.20,10.0,Calm,Calm,-,N/A,,Clear,0,2013-04-06 14:15:00
10:35 AM,51.8,37.4,58,30.19,10.0,Calm,Calm,-,N/A,,Clear,0,2013-04-06 14:35:00
10:55 AM,55.4,37.2,50,30.20,10.0,WSW,4.6,-,N/A,,Clear,250,2013-04-06 14:55:00
11:15 AM,59.4,36.3,42,30.19,10.0,West,6.9,-,N/A,,Clear,270,2013-04-06 15:15:00
11:35 AM,60.3,36.0,40,30.19,10.0,WNW,6.9,-,N/A,,Clear,290,2013-04-06 15:35:00
11:55 AM,61.0,34.2,37,30.19,10.0,NW,3.5,-,N/A,,Clear,320,2013-04-06 15:55:00
12:15 PM,63.7,34.7,34,30.18,10.0,South,4.6,-,N/A,,Clear,190,2013-04-06 16:15:00
12:35 PM,64.2,34.5,33,30.18,10.0,West,5.8,-,N/A,,Clear,280,2013-04-06 16:35:00
12:55 PM,64.8,32.9,30,30.18,10.0,SSW,3.5,-,N/A,,Clear,210,2013-04-06 16:55:00
1:15 PM,65.7,34.2,31,30.17,10.0,South,8.1,-,N/A,,Clear,180,2013-04-06 17:15:00
1:35 PM,66.2,32.9,29,30.16,10.0,SW,8.1,-,N/A,,Clear,230,2013-04-06 17:35:00
1:55 PM,66.9,33.3,29,30.16,10.0,SSE,6.9,-,N/A,,Clear,150,2013-04-06 17:55:00
2:15 PM,67.3,35.1,30,30.14,10.0,West,8.1,-,N/A,,Clear,270,2013-04-06 18:15:00
2:35 PM,68.2,35.1,29,30.13,10.0,SSW,9.2,-,N/A,,Clear,200,2013-04-06 18:35:00
2:55 PM,67.6,34.5,29,30.12,10.0,WNW,4.6,-,N/A,,Clear,290,2013-04-06 18:55:00
3:15 PM,68.7,34.9,29,30.12,10.0,South,5.8,-,N/A,,Clear,180,2013-04-06 19:15:00
3:35 PM,68.0,33.4,28,30.11,10.0,SSE,12.7,17.3,N/A,,Clear,160,2013-04-06 19:35:00
3:55 PM,68.4,31.3,25,30.11,10.0,SE,5.8,-,N/A,,Clear,130,2013-04-06 19:55:00
4:15 PM,68.2,35.1,29,30.10,10.0,South,5.8,-,N/A,,Clear,190,2013-04-06 20:15:00
4:35 PM,68.0,35.1,30,30.09,10.0,South,9.2,-,N/A,,Clear,180,2013-04-06 20:35:00
4:55 PM,68.4,34.5,29,30.09,10.0,SSE,8.1,-,N/A,,Clear,150,2013-04-06 20:55:00
5:15 PM,68.0,35.4,30,30.09,10.0,South,4.6,-,N/A,,Clear,180,2013-04-06 21:15:00
5:35 PM,68.5,34.5,29,30.10,10.0,South,8.1,-,N/A,,Clear,170,2013-04-06 21:35:00
5:55 PM,67.5,34.3,29,30.10,10.0,SSE,12.7,16.1,N/A,,Clear,150,2013-04-06 21:55:00
6:15 PM,66.4,34.5,31,30.11,10.0,SSE,9.2,16.1,N/A,,Clear,150,2013-04-06 22:15:00
6:35 PM,66.6,33.8,30,30.11,10.0,SE,4.6,-,N/A,,Clear,140,2013-04-06 22:35:00
6:55 PM,65.1,32.7,30,30.11,10.0,South,8.1,-,N/A,,Clear,180,2013-04-06 22:55:00
7:15 PM,63.1,34.5,34,30.11,10.0,South,5.8,-,N/A,,Clear,180,2013-04-06 23:15:00
7:35 PM,62.1,35.2,37,30.11,10.0,SSE,5.8,-,N/A,,Clear,160,2013-04-06 23:35:00
7:55 PM,62.2,34.5,36,30.11,10.0,SSW,3.5,-,N/A,,Clear,200,2013-04-06 23:55:00
8:15 PM,60.6,35.4,39,30.12,10.0,South,4.6,-,N/A,,Clear,180,2013-04-07 00:15:00
8:35 PM,61.5,33.8,35,30.11,10.0,South,3.5,-,N/A,,Clear,190,2013-04-07 00:35:00
8:55 PM,59.7,34.9,39,30.12,10.0,South,8.1,-,N/A,,Clear,180,2013-04-07 00:55:00
9:15 PM,59.7,34.9,39,30.12,10.0,Calm,Calm,-,N/A,,Clear,0,2013-04-07 01:15:00
9:35 PM,60.1,32.9,36,30.14,10.0,Calm,Calm,-,N/A,,Clear,0,2013-04-07 01:35:00
9:55 PM,58.5,35.1,42,30.14,10.0,South,4.6,9.2,N/A,,Clear,190,2013-04-07 01:55:00
10:15 PM,55.8,35.6,47,30.15,10.0,Calm,Calm,-,N/A,,Clear,0,2013-04-07 02:15:00
10:35 PM,54.0,35.8,50,30.15,10.0,South,3.5,-,N/A,,Clear,190,2013-04-07 02:35:00
10:55 PM,55.0,34.7,46,30.16,10.0,Calm,Calm,-,N/A,,Clear,0,2013-04-07 02:55:00
11:15 PM,53.2,35.1,50,30.16,10.0,East,3.5,-,N/A,,Clear,90,2013-04-07 03:15:00
11:35 PM,49.8,36.1,59,30.16,10.0,Calm,Calm,-,N/A,,Clear,0,2013-04-07 03:35:00
11:55 PM,51.3,35.4,55,30.15,10.0,East,5.8,-,N/A,,Clear,90,2013-04-07 03:55:00